Погода в Сосновом

Россия / Краснодарский край     44°10′36″N   38°56′44″E
темп.,
°C
ветер,
м/с
пор.,
м/с
влажн.,
%
обл.,
%
осадки,
мм/ч
давл.,
гПа
погр.,
м
7 мая, пт
пт700:00+11ююв006815 0.0 101410
03:00+9ююв11660 0.0 101512
06:00+9юв11761 0.0 101621
09:00+16ю48710 0.0 1018819
12:00+18ю586097 0.0 1018852
15:00+17ю466298 0.0 1018667
18:00+15ю237121 0.0 1018320
21:00+10в22905 0.0 101919
8 мая, сб
сб800:00+10в118638 0.0 101816
03:00+9в1187100 0.0 101721
06:00+11вюв1184100 0.0 101630
09:00+18ююв2654100 0.0 1015521
12:00+21ююз3643100 0.0 1014786
15:00+21ю364296 0.0 1013617
18:00+18з015993 0.0 101121
21:00+16вюв1151100 0.0 101211
9 мая, вс
вс900:00+13юз3590100 0.2 1013244
03:00+12ююв3498100 0.8 1012168
06:00+13ююз49100100 6.8 1012831
09:00+10с41097100 19.9 1014852
12:00+8с3796100 12.9 1018738
15:00+10с368656 15.4 1020865
18:00+10с378354 0.6 1022891
21:00+6ссв229397 0.7 102584
10 мая, пн
пн1000:00+5св22923 0.0 102533
03:00+7св227896 0.0 102545
06:00+6ссв22847 0.1 102552
09:00+12с344713 0.2 10241595
12:00+12ссз345478 0.6 10241661
15:00+12зсз345981 1.6 10231459
18:00+10зюз2573100 0.8 1022296
21:00+6св2287100 1.2 102453
11 мая, вт
вт1100:00+6ю2489100 0.0 1022156
03:00+7юз4987100 0.6 1020637
06:00+7ююз71189100 1.4 10191060
09:00+7ююз91496100 9.5 10191352
12:00+8ююз91494100 6.8 10191482
15:00+8ююз61194100 12.8 10191325
18:00+8ю51087100 2.1 1019666
21:00+9ю3773100 2.2 1019358